Hourly Data Report for October 10, 2015

All times are specified in Local Standard Time (LST). Add 1 hour to adjust for Daylight Saving Time where and when it is observed.

BATHURST A
NEW BRUNSWICK

47°37'47.000" N
65°44'20.000" W
58.80 m
8100505
71574
ZBF

Download Data

Hourly Data (October 2015)
Hourly Data Report for October 10, 2015
Temp Definition
°C
Dew Point Temp Definition
°C
Rel Hum Definition
%
Wind Dir Definition
10's deg

Wind Spd Definition
km/h
Visibility Definition
km
Stn Press Definition
kPa
Hmdx Definition


Wind Chill Definition


Weather Definition


TIME
00:00 Legend Double Dagger 5.2 5.1 99 32 4 12.9 99.39     Rain
01:00 Legend Double Dagger 5.3 4.9 97 28 12 19.3 99.36     Drizzle
02:00 Legend Double Dagger 5.1 4.4 95 28 9 19.3 99.33     Mostly Cloudy
03:00 Legend Double Dagger 5.3 3.8 90 30 17 24.1 99.37     LegendNANA
04:00 Legend Double Dagger 4.0 1.6 84 30 20 24.1 99.46     LegendNANA
05:00 Legend Double Dagger 3.7 1.1 83 30 23 24.1 99.54     Mainly Clear
06:00 Legend Double Dagger 3.9 0.9 81 29 22 24.1 99.63     LegendNANA
07:00 Legend Double Dagger 3.8 0.3 78 29 22 24.1 99.73     LegendNANA
08:00 Legend Double Dagger 3.5 -2.1 67 29 32 24.1 99.93     Mainly Clear
09:00 Legend Double Dagger 3.7 -4.0 57 29 36 24.1 100.07     LegendNANA
10:00 Legend Double Dagger 4.2 -5.6 49 30 31 24.1 100.14     LegendNANA
11:00 Legend Double Dagger 5.0 -6.3 44 29 35 24.1 100.23     Mainly Clear
12:00 Legend Double Dagger 5.8 -6.8 40 30 27 24.1 100.29     LegendNANA
13:00 Legend Double Dagger 6.1 -8.3 35 30 36 24.1 100.36     LegendNANA
14:00 Legend Double Dagger 6.7 -7.7 35 29 26 24.1 100.36     Mainly Clear
15:00 Legend Double Dagger 7.1 -7.7 34 29 21 24.1 100.35     LegendNANA
16:00 Legend Double Dagger 7.0 -8.6 32 28 19 24.1 100.37     LegendNANA
17:00 Legend Double Dagger 6.1 -8.6 34 29 15 24.1 100.42     Clear
18:00 Legend Double Dagger 4.0 -6.6 46 28 4 24.1 100.46     LegendNANA
19:00 Legend Double Dagger 1.2 -4.7 65 26 8 24.1 100.55     LegendNANA
20:00 Legend Double Dagger 0.3 -4.0 73 24 6 24.1 100.61     Cloudy
21:00 Legend Double Dagger -0.9 -4.3 78 24 7 24.1 100.61   -3 LegendNANA
22:00 Legend Double Dagger -1.8 -4.5 82 25 7 24.1 100.58   -4 LegendNANA
23:00 Legend Double Dagger -1.4 -4.4 80 23 8 24.1 100.56   -4 Cloudy

Notes on Data Quality.

Legend

  • E = Estimated
  • M = Missing
  • NA = Not Available
  • ‡ = Partner data that is not subject to review by the National Climate Archives
Date modified: